Location: Carrières
(48.9495°N, 2.0407°E)
Time: 21:42:52
(UTC+00:00)

MINOTAUR 4 R/B - Pass Details

Date: 28 January 2023
Orbit: 447 x 452 km, 98.0° (Epoch: 29 March)

Event Time Altitude Azimuth Distance (km) Brightness Sun altitude
Exits shadow 19:02:58 55° 237° (WSW) 547 4.5 -23.0°
Drops below altitude 10° 19:05:47 10° 204° (SSW) 1,573 6.9 -23.5°
Sets 19:07:48 0° 202° (SSW) 2,439 7.9 -23.8°
